COSMOS 1275 DEB, 20505

Orbit data source: Space-Track

COSMOS 1275 DEB, 20505 is space debris in LEO originally from a launch on Thu, 04 Jun 1981 UTC launched from the Plesetsk Missile And Space Complex (PKMTR). Debris objects in space refer to the collection of defunct objects orbiting the Earth. Examples of debris include non-operational satellites, rocket bodies, and fragments generated from explosions, collisions, or faulty payload assembly.

Loading next visibility...
Identifier
20505, 1981-053MM
Orbit
LEO
Country
Flag of CISCIS
Related business
Manufacturer
Unknown
Mission
Spacecraft
Bus & Motor
Unknown
Mass
Unknown
Launch date (UTC)
1981-06-04 (45 years ago)
Launch vehicle
Unknown
Launch site
Plesetsk Missile And Space Complex (PKMTR)
Object type
Payload
Rocket body
Debris
Shape & HBR
Unknown shape, 0.1 m
Radar Cross Section
Small (<0.1 m²)

Expand to show TLE details & history
Last TLE update: 15 hours ago

TLE from 15 hours ago
0 COSMOS 1275 DEB
1 20505U 81053MM  26033.88724288  .00008283  00000-0  18882-2 0  9990
2 20505  83.1515   2.0837 0018210  74.3357 285.9852 14.55644380655913
Epoch: 2026-02-02T21:17Z
TLE epoch observation values (Epoch: 2026-02-02T21:17:37.784Z)
Latitude
-0.00004°
Longitude
-90.39982°
Altitude
706.758 km
Speed
7.504 km/s
True Right ascension
00h 08m 20s
True Declination
0° 00' 00"
Sunlit
Object was in daylight at epoch
Visualization orbit readout
Latitude
Unknown
Longitude
Unknown
Altitude
Unknown
Speed
Unknown
Apparent Right ascension
Unknown
Apparent Declination
Unknown
Sunlit
N/A
Visualization observer readout
Local Sidereal Time
13:45:17
Azimuth
Unknown
Elevation
Unknown
Doppler factor
Unknown
Orbital elements
Apogee altitude
717.2 km
Perigee altitude
691.406 km
Semi-major axis
7,082.44 km
Eccentricity
0.00182
Inclination
83.1515°
RAAN
2.0837°
Arg. of periapsis
74.3357°
True anomaly
285.78447°
Mean anomaly
285.9852°
Eccentric anomaly
285.88485°
Mean motion
3.6414 °/min
Orbital period
98.86 mins
BSTAR
0.0018882
Loading maneuver chart data...
Computing Atmospheric mass density...

Documentation

Showing up to 5 results
|